Lexington Weather

Lexington, Massachusetts, USA

42°F
11/27/2020 3:50am 
  • Lexington Conditions: Fog, Overcast
  • Temperature: 42.4°F / 5.8°CWarmer 2.7°F than last hour.
  • Dew Point: 41.9°FIncreased 2.9°Fsince last hour.
  • Relative Humidity: 98%Increased 1.0% since last hour.
  • Wind: Calm, 10-min avg: Calm, gust: None
  • Barometer: 29.98 in Steady
  • Visibility: ½ mile
  • Rain Today: 0.00 in
  •   
Southeast Middlesex County - Special Weather Statement - Special Weather Statement
 - SEE ALL NEARBY ALERTS -

Regional Weather Roundup
for Boston / Norton, MA

        
000
ASUS41 KBOX 211304
RWRBOX

REGIONAL WEATHER ROUNDUP
NATIONAL WEATHER SERVICE BOSTON/NORTON MA
800 AM EST SAT NOV 21 2020

NOTE:  "FAIR" INDICATES FEW OR NO CLOUDS BELOW 12,000 FEET WITH NO 
SIGNIFICANT WEATHER AND/OR OBSTRUCTIONS TO VISIBILITY.

MAZALL-211400-
EASTERN MASSACHUSETTS
  
CITY           SKY/WX    TMP DP  RH WIND       PRES   REMARKS
BOSTON         PTSUNNY   54  38  54 NW8       30.26R                  
BEVERLY        SUNNY     55  39  54 W8        30.23R                  
LAWRENCE       SUNNY     52  38  58 SW6       30.26R                  
BEDFORD        SUNNY     54  39  57 W7        30.24R                  
BLUE HILL        N/A     50  37  61 W15       30.24R                  
NORWOOD        SUNNY     45  38  76 S3        30.26R                  
MARSHFIELD     SUNNY     52  41  66 SW5       30.26R                  
PLYMOUTH       SUNNY     49  42  77 SW3       30.26R                  
TAUNTON        SUNNY     53  41  63 SW6       30.27R                  
NEW BEDFORD    SUNNY     48  43  82 CALM      30.27R                  
$$

MAZALL-211400-
CAPE COD AND THE ISLANDS
  
CITY           SKY/WX    TMP DP  RH WIND       PRES   REMARKS
FALMOUTH       SUNNY     52  46  82 SW7       30.28R                  
HYANNIS        SUNNY     52  47  83 SW6       30.26R                  
CHATHAM        SUNNY     54  45  71 W7        30.28R                  
PROVINCETOWN   SUNNY     55  45  68 SW10      30.26R                  
NANTUCKET      SUNNY     57  50  77 W10       30.28R                  
MARTHAS VNYRD  SUNNY     55  48  77 W7        30.28R                  
$$
 
MAZALL-211400-
CENTRAL AND WESTERN MASSACHUSETTS
  
CITY           SKY/WX    TMP DP  RH WIND       PRES   REMARKS
WORCESTER      SUNNY     51  37  58 W10       30.26R                  
FITCHBURG      SUNNY     37  34  89 CALM      30.26R                  
ORANGE         SUNNY     37  35  92 SW3       30.27R                  
SPRINGFIELD    PTSUNNY   42  38  85 CALM      30.27R                  
WESTFIELD      SUNNY     43  37  79 S3        30.28R                  
NORTH ADAMS    CLOUDY    51  39  63 VRB3      30.30R                  
PITTSFIELD     PTCLDY   N/A N/A N/A W14G20    30.28R                  
$$
 
RIZALL-211400-
RHODE ISLAND
  
CITY           SKY/WX    TMP DP  RH WIND       PRES   REMARKS
PROVIDENCE     MOSUNNY   51  39  63 SW5       30.28R                  
NEWPORT        SUNNY     52  42  69 VRB3      30.28R                  
BLOCK ISLAND   SUNNY     53  46  77 W9        30.30R                  
SMITHFIELD     MOSUNNY   50  38  63 W6        30.27R                  
WESTERLY       SUNNY     49  41  74 CALM      30.30R                  
$$
 
CTZALL-211400-
CONNECTICUT
  
CITY           SKY/WX    TMP DP  RH WIND       PRES   REMARKS
BRADLEY INTL   PTSUNNY   46  37  71 VRB3      30.28R                  
HARTFORD       MOSUNNY   43  39  86 S3        30.29R                  
BRIDGEPORT     MOSUNNY   47  40  76 CALM      30.30R                  
DANBURY        MOSUNNY   41  37  86 CALM      30.31R                  
GROTON         SUNNY     45  42  89 N3        30.30R                  
NEW HAVEN      MOSUNNY   45  43  93 CALM      30.30R                  
CHESTER        FAIR      55  36  47 CALM      30.30R                  
MERIDEN        MOSUNNY   37  35  92 CALM      30.31R                  
WILLIMANTIC    SUNNY     37  34  89 CALM      30.30R                  
OXFORD         MOSUNNY   47  37  68 NW3       30.30R                  
$$

MEZ002-015-021-024-NHZ003-005-008-011-012-014-VTZ005-008-211400-
NORTHERN NEW ENGLAND
  
CITY           SKY/WX    TMP DP  RH WIND       PRES   REMARKS
PORTLAND ME    MOSUNNY   49  38  65 CALM      30.20R                  
BANGOR ME      MOSUNNY   48  33  56 MISG      30.16R                  
CONCORD NH     SUNNY     35  32  88 CALM      30.23R                  
MANCHESTER NH  PTSUNNY   43  34  70 CALM      30.22R                  
NASHUA NH      SUNNY     45  40  82 CALM      30.25R                  
PORTSMOUTH NH  NOT AVBL                                               
JAFFREY NH     SUNNY     40  35  83 CALM      30.24R                  
KEENE NH       CLEAR     31  31 100 CALM      30.27R                  
BURLINGTON VT  MOCLDY    47  31  53 NW7       30.31R                  
MT. WASHINGTON FOG       23  23 100 W72G79      N/A  VSB 0   WCI  -1  
$$

NYZ052-076-211400-
EASTERN NEW YORK
  
CITY           SKY/WX    TMP DP  RH WIND       PRES   REMARKS
ALBANY         MOCLDY    46  37  71 NW15G29   30.33R                  
NEW YORK CITY  PTSUNNY   56  37  49 CALM      30.32R                  
$$
 
ANZALL-211400-
MARINE OBSERVATIONS
  
STATION/POSITION TIME  TEMP    WIND        PRES    VSBY  WAVE
                       AIR SEA DIR/SP/G                  HT/PER
                 (UTC) (F)     (DEG/KT/KT) (MB)    (MI)  (FT/S)
BOSTON BUOY      1240   51 51  240/ 10/ 12 1024.4R
BUZZARDS BAY     1200          260/ 14/ 16 1025.8R
NANTUCKET SOUND  1240      53  250/ 10/ 12   N/A
MASS BAY-STELLWA NOT AVBL
ISLE OF SHOALS   1200   54     240/ 15/ 16 1022.3R
S OF BLOCK IS    1226      58                N/A           5/ 7
$$

......................KEY.........................
  SKY/WX - SKY CONDITION/PRESENT WEATHER
  TMP    - TEMPERATURE IN FAHRENHEIT
  DWPT   - DEWPOINT IN FAHRENHEIT
  RH     - RELATIVE HUMIDITY IN PERCENT
  WIND   - DIRECTION AND SPEED IN MPH
  PRES   - MEAN SEA LEVEL PRESSURE IN INCHES OF HG
  WCI    - WIND CHILL INDEX
  VSB    - VISIBILITY IN MILES
  HX     - HEAT INDEX
  TC     - TEMPERATURE IN CELSIUS
  VRB    - VARIABLE WIND DIRECTION
  N/A    - NOT AVAILABLE
  
      

Other recent Regional Weather Roundups

Fri Nov 27, 1:04am

Fri Nov 27, 12:04am

Thu Nov 26, 11:04pm

Thu Nov 26, 10:04pm

Thu Nov 26, 9:04pm

Thu Nov 26, 8:04pm

Thu Nov 26, 7:04pm

Thu Nov 26, 6:04pm

Thu Nov 26, 5:04pm

Thu Nov 26, 4:04pm

Thu Nov 26, 2:04pm

Thu Nov 26, 1:04pm

Thu Nov 26, 12:04pm

Thu Nov 26, 11:04am

Thu Nov 26, 10:04am

Thu Nov 26, 9:04am

Thu Nov 26, 8:04am

Thu Nov 26, 7:04am

Thu Nov 26, 6:04am

Thu Nov 26, 5:04am

Thu Nov 26, 4:04am

Thu Nov 26, 3:04am

Thu Nov 26, 2:04am

Thu Nov 26, 1:04am

Thu Nov 26, 12:04am

Wed Nov 25, 11:04pm

Wed Nov 25, 10:04pm

Wed Nov 25, 9:04pm

Wed Nov 25, 8:04pm

Wed Nov 25, 7:04pm

Wed Nov 25, 6:04pm

Wed Nov 25, 5:04pm

Wed Nov 25, 4:04pm

Wed Nov 25, 3:05pm

Wed Nov 25, 2:04pm

Wed Nov 25, 1:04pm

Wed Nov 25, 12:05pm

Wed Nov 25, 11:04am

Wed Nov 25, 10:04am

Wed Nov 25, 9:04am

Wed Nov 25, 8:04am

Wed Nov 25, 7:04am

Wed Nov 25, 6:04am

Wed Nov 25, 5:04am

Wed Nov 25, 4:04am

Wed Nov 25, 3:04am

Wed Nov 25, 2:04am

Wed Nov 25, 1:04am

Wed Nov 25, 12:04am

Tue Nov 24, 11:04pm

Tue Nov 24, 10:04pm

Tue Nov 24, 9:04pm

Tue Nov 24, 8:04pm

Tue Nov 24, 7:04pm

Tue Nov 24, 6:04pm

Tue Nov 24, 5:04pm

Tue Nov 24, 4:05pm

Tue Nov 24, 3:05pm

Tue Nov 24, 2:05pm

Tue Nov 24, 1:05pm

Tue Nov 24, 12:04pm

Tue Nov 24, 11:04am

Tue Nov 24, 10:04am

Tue Nov 24, 9:04am

Tue Nov 24, 8:04am

Tue Nov 24, 7:04am

Tue Nov 24, 6:04am

Tue Nov 24, 5:04am

Tue Nov 24, 4:05am

Tue Nov 24, 3:04am

Tue Nov 24, 2:04am

Tue Nov 24, 1:04am

Tue Nov 24, 12:05am

Mon Nov 23, 11:04pm

Mon Nov 23, 10:04pm

Mon Nov 23, 9:04pm

Mon Nov 23, 8:04pm

Mon Nov 23, 7:04pm

Mon Nov 23, 6:04pm

Mon Nov 23, 5:04pm

Mon Nov 23, 4:04pm

Mon Nov 23, 3:04pm

Mon Nov 23, 2:04pm

Mon Nov 23, 1:04pm

Mon Nov 23, 12:04pm

Mon Nov 23, 11:04am

Mon Nov 23, 10:04am

Mon Nov 23, 9:04am

Mon Nov 23, 8:05am

Mon Nov 23, 7:04am

Mon Nov 23, 6:04am

Mon Nov 23, 5:04am

Mon Nov 23, 4:04am

Mon Nov 23, 3:04am

Mon Nov 23, 2:04am

Mon Nov 23, 1:04am

Mon Nov 23, 12:05am

Sun Nov 22, 11:04pm

Sun Nov 22, 10:04pm

Sun Nov 22, 9:04pm

Sun Nov 22, 8:05pm

Sun Nov 22, 7:04pm

Sun Nov 22, 6:04pm

Sun Nov 22, 5:04pm

Sun Nov 22, 4:04pm

Sun Nov 22, 3:04pm

Sun Nov 22, 2:04pm

Sun Nov 22, 1:05pm

Sun Nov 22, 12:04pm

Sun Nov 22, 11:04am

Sun Nov 22, 10:05am

Sun Nov 22, 9:04am

Sun Nov 22, 8:04am

Sun Nov 22, 7:04am

Sun Nov 22, 6:04am

Sun Nov 22, 5:04am

Sun Nov 22, 4:04am

Sun Nov 22, 3:04am

Sun Nov 22, 2:04am

Sun Nov 22, 1:04am

Sun Nov 22, 12:04am

Sat Nov 21, 11:04pm

Sat Nov 21, 10:04pm

Sat Nov 21, 9:04pm

Sat Nov 21, 8:05pm

Sat Nov 21, 7:04pm

Sat Nov 21, 6:04pm

Sat Nov 21, 5:04pm

Sat Nov 21, 4:05pm

Sat Nov 21, 3:04pm

Sat Nov 21, 2:04pm

Sat Nov 21, 1:05pm

Sat Nov 21, 12:04pm

Sat Nov 21, 11:04am

Sat Nov 21, 10:04am

Sat Nov 21, 9:04am

Sat Nov 21, 7:04am

Sat Nov 21, 6:04am

Sat Nov 21, 5:04am

Sat Nov 21, 4:04am

Sat Nov 21, 3:04am

Sat Nov 21, 2:04am

Sat Nov 21, 1:04am

Sat Nov 21, 12:04am

Fri Nov 20, 11:04pm

Fri Nov 20, 10:04pm

Fri Nov 20, 9:04pm

Fri Nov 20, 8:04pm

Fri Nov 20, 7:04pm

Fri Nov 20, 6:04pm

Fri Nov 20, 5:04pm

Fri Nov 20, 4:05pm

Fri Nov 20, 3:05pm

Fri Nov 20, 2:04pm

Fri Nov 20, 1:04pm

Fri Nov 20, 12:04pm

Fri Nov 20, 11:04am

Fri Nov 20, 10:04am

Fri Nov 20, 9:04am

Fri Nov 20, 8:04am

Fri Nov 20, 7:04am

Fri Nov 20, 6:04am

Fri Nov 20, 5:04am

Fri Nov 20, 4:04am

Meta data:

ID: 70d9874b-9d91-4681-908a-96143ae86ebd
Link: https://api.weather.gov/products/70d9874b-9d91-4681-908a-96143ae86ebd